Location: Peterborough
(44.3091°N, 78.3197°W)
Time: 05:54:03
(UTC-04:00)

Vanguard 3 - Pass Details

Date: 27 February 2024
Orbit: 510 x 3236 km, 33.3° (Epoch: 12 April)

Event Time Altitude Azimuth Distance (km) Brightness Sun altitude
Rises 22:18:16 0° 257° (WSW) 7,020 12.3 -44.5°
Reaches altitude 10° 22:22:55 10° 254° (WSW) 6,118 11.8 -45.1°
Enters shadow 22:38:02 52° 218° (SW) 3,632 10.1 -46.9°
Maximum altitude 22:42:01 58° 183° (S) 3,341 - -47.4°
Drops below altitude 10° 22:56:43 10° 109° (ESE) 4,841 - -49.0°
Sets 22:59:55 0° 106° (ESE) 5,537 - -49.3°
